Time,TemperatureF,DewpointF,PressureIn,WindDirection,WindDirectionDegrees,WindSpeedMPH,WindSpeedGustMPH,Humidity,HourlyPrecipIn,Conditions,Clouds,dailyrainin,SoftwareType,DateUTC
2013-05-02 00:01:00,62.1,44.2,29.09,NNE,30,0.0,0.0,52,0.00,,SKC,0.00,VWS V14.00,2013-05-02 04:01:00,
2013-05-02 00:06:00,61.9,44.1,29.12,NNE,30,0.0,0.0,52,0.00,,SKC,0.00,VWS V14.00,2013-05-02 04:06:00,
2013-05-02 00:10:00,61.9,44.1,29.12,NNE,30,0.0,0.0,52,0.00,,SKC,0.00,VWS V14.00,2013-05-02 04:10:00,
2013-05-02 00:16:00,61.7,43.9,29.12,NNE,30,0.0,0.0,52,0.00,,SKC,0.00,VWS V14.00,2013-05-02 04:16:00,
2013-05-02 00:21:00,61.5,44.2,29.12,NNE,30,0.0,0.0,53,0.00,,SKC,0.00,VWS V14.00,2013-05-02 04:21:00,
2013-05-02 00:26:00,61.3,44.1,29.12,NNE,30,0.0,0.0,53,0.00,,SKC,0.00,VWS V14.00,2013-05-02 04:26:00,
2013-05-02 00:30:00,61.3,44.1,29.12,NNE,30,0.0,0.0,53,0.00,,SKC,0.00,VWS V14.00,2013-05-02 04:30:00,
2013-05-02 00:36:00,61.3,44.1,29.12,NNE,30,0.0,0.0,53,0.00,,SKC,0.00,VWS V14.00,2013-05-02 04:36:00,
2013-05-02 00:41:00,61.3,44.6,29.12,NNE,30,0.0,0.0,54,0.00,,SKC,0.00,VWS V14.00,2013-05-02 04:41:00,
2013-05-02 00:46:00,61.3,44.6,29.12,NNE,30,0.0,0.0,54,0.00,,SKC,0.00,VWS V14.00,2013-05-02 04:46:00,
2013-05-02 00:51:00,61.0,44.2,29.12,NNE,30,0.0,0.0,54,0.00,,SKC,0.00,VWS V14.00,2013-05-02 04:51:00,
2013-05-02 00:56:00,60.8,44.5,29.12,NNE,30,0.0,0.0,55,0.00,,SKC,0.00,VWS V14.00,2013-05-02 04:56:00,
2013-05-02 01:01:00,60.8,44.5,29.12,NNE,30,0.0,0.0,55,0.00,,SKC,0.00,VWS V14.00,2013-05-02 05:01:00,
2013-05-02 01:06:00,60.4,44.7,29.12,NNE,30,0.0,0.0,56,0.00,,SKC,0.00,VWS V14.00,2013-05-02 05:06:00,
2013-05-02 01:11:00,60.4,44.7,29.12,NNE,30,0.0,0.0,56,0.00,,SKC,0.00,VWS V14.00,2013-05-02 05:11:00,
2013-05-02 01:16:00,60.4,44.7,29.12,NNE,30,0.0,0.0,56,0.00,,SKC,0.00,VWS V14.00,2013-05-02 05:16:00,
2013-05-02 01:21:00,60.3,45.0,29.12,NNE,30,0.0,0.0,57,0.00,,SKC,0.00,VWS V14.00,2013-05-02 05:21:00,
2013-05-02 01:26:00,60.1,45.3,29.12,SSW,206,0.0,0.0,58,0.00,,SKC,0.00,VWS V14.00,2013-05-02 05:26:00,
2013-05-02 01:31:00,60.1,45.3,29.12,South,173,0.0,0.0,58,0.00,,SKC,0.00,VWS V14.00,2013-05-02 05:31:00,
2013-05-02 01:36:00,59.9,45.1,29.12,South,173,0.0,0.0,58,0.00,,SKC,0.00,VWS V14.00,2013-05-02 05:36:00,
2013-05-02 01:41:00,59.9,45.5,29.12,South,173,0.0,0.0,59,0.00,,SKC,0.00,VWS V14.00,2013-05-02 05:41:00,
2013-05-02 01:46:00,59.7,45.4,29.12,South,173,0.0,0.0,59,0.00,,SKC,0.00,VWS V14.00,2013-05-02 05:46:00,
2013-05-02 01:51:00,59.7,45.4,29.12,South,173,0.0,0.0,59,0.00,,SKC,0.00,VWS V14.00,2013-05-02 05:51:00,
2013-05-02 01:56:00,59.7,45.4,29.12,South,173,0.0,0.0,59,0.00,,SKC,0.00,VWS V14.00,2013-05-02 05:56:00,
2013-05-02 02:01:00,59.7,45.4,29.12,South,173,0.0,0.0,59,0.00,,SKC,0.00,VWS V14.00,2013-05-02 06:01:00,
2013-05-02 02:06:00,59.7,45.8,29.12,South,173,0.0,0.0,60,0.00,,SKC,0.00,VWS V14.00,2013-05-02 06:06:00,
2013-05-02 02:11:00,59.5,45.7,29.12,South,173,0.0,0.0,60,0.00,,SKC,0.00,VWS V14.00,2013-05-02 06:11:00,
2013-05-02 02:16:00,59.4,45.5,29.12,South,173,0.0,0.0,60,0.00,,SKC,0.00,VWS V14.00,2013-05-02 06:16:00,
2013-05-02 02:21:00,59.4,45.9,29.12,South,173,0.0,0.0,61,0.00,,SKC,0.00,VWS V14.00,2013-05-02 06:21:00,
2013-05-02 02:26:00,59.2,45.8,29.12,South,172,0.0,0.0,61,0.00,,SKC,0.00,VWS V14.00,2013-05-02 06:26:00,
2013-05-02 02:31:00,59.0,45.6,29.12,South,173,0.0,0.0,61,0.00,,SKC,0.00,VWS V14.00,2013-05-02 06:31:00,
2013-05-02 02:36:00,59.0,46.0,29.09,South,173,0.0,0.0,62,0.00,,SKC,0.00,VWS V14.00,2013-05-02 06:36:00,
2013-05-02 02:41:00,59.0,45.6,29.09,South,173,0.0,0.0,61,0.00,,SKC,0.00,VWS V14.00,2013-05-02 06:41:00,
2013-05-02 02:46:00,58.8,45.8,29.09,South,173,0.0,0.0,62,0.00,,SKC,0.00,VWS V14.00,2013-05-02 06:46:00,
2013-05-02 02:51:00,58.5,45.9,29.09,South,173,0.0,0.0,63,0.00,,SKC,0.00,VWS V14.00,2013-05-02 06:51:00,
2013-05-02 02:56:00,58.5,45.9,29.09,South,173,0.0,0.0,63,0.00,,SKC,0.00,VWS V14.00,2013-05-02 06:56:00,
2013-05-02 03:01:00,58.5,45.9,29.09,South,173,0.0,0.0,63,0.00,,SKC,0.00,VWS V14.00,2013-05-02 07:01:00,
2013-05-02 03:06:00,58.5,46.3,29.09,South,173,0.0,0.0,64,0.00,,SKC,0.00,VWS V14.00,2013-05-02 07:06:00,
2013-05-02 03:11:00,58.5,46.3,29.09,South,173,0.0,0.0,64,0.00,,SKC,0.00,VWS V14.00,2013-05-02 07:11:00,
2013-05-02 03:16:00,58.5,46.3,29.09,South,173,0.0,0.0,64,0.00,,SKC,0.00,VWS V14.00,2013-05-02 07:16:00,
2013-05-02 03:21:00,58.5,46.3,29.09,South,173,0.0,0.0,64,0.00,,SKC,0.00,VWS V14.00,2013-05-02 07:21:00,
2013-05-02 03:26:00,58.3,46.2,29.09,South,173,0.0,0.0,64,0.00,,SKC,0.00,VWS V14.00,2013-05-02 07:26:00,
2013-05-02 03:32:00,58.1,46.4,29.09,South,173,0.0,0.0,65,0.00,,SKC,0.00,VWS V14.00,2013-05-02 07:32:00,
2013-05-02 03:37:00,58.1,46.4,29.09,South,173,0.0,0.0,65,0.00,,SKC,0.00,VWS V14.00,2013-05-02 07:37:00,
2013-05-02 03:42:00,57.9,46.2,29.09,South,173,0.0,0.0,65,0.00,,SKC,0.00,VWS V14.00,2013-05-02 07:42:00,
2013-05-02 03:47:00,57.7,46.1,29.09,South,173,0.0,0.0,65,0.00,,SKC,0.00,VWS V14.00,2013-05-02 07:47:00,
2013-05-02 03:52:00,57.6,46.3,29.09,South,173,0.0,0.0,66,0.00,,SKC,0.00,VWS V14.00,2013-05-02 07:52:00,
2013-05-02 03:57:00,57.6,46.3,29.09,South,173,0.0,0.0,66,0.00,,SKC,0.00,VWS V14.00,2013-05-02 07:57:00,
2013-05-02 04:02:00,57.4,46.1,29.09,South,173,0.0,0.0,66,0.00,,SKC,0.00,VWS V14.00,2013-05-02 08:02:00,
2013-05-02 04:07:00,57.2,46.4,29.09,South,173,0.0,0.0,67,0.00,,SKC,0.00,VWS V14.00,2013-05-02 08:07:00,
2013-05-02 04:12:00,57.2,46.4,29.09,South,173,0.0,0.0,67,0.00,,SKC,0.00,VWS V14.00,2013-05-02 08:12:00,
2013-05-02 04:17:00,57.4,46.5,29.09,South,173,0.0,0.0,67,0.00,,SKC,0.00,VWS V14.00,2013-05-02 08:17:00,
2013-05-02 04:22:00,57.6,46.7,29.09,South,173,0.0,0.0,67,0.00,,SKC,0.00,VWS V14.00,2013-05-02 08:22:00,
2013-05-02 04:27:00,57.4,46.5,29.09,South,173,0.0,0.0,67,0.00,,SKC,0.00,VWS V14.00,2013-05-02 08:27:00,
2013-05-02 04:32:00,57.2,46.4,29.09,South,173,0.0,0.0,67,0.00,,SKC,0.00,VWS V14.00,2013-05-02 08:32:00,
2013-05-02 04:37:00,57.0,46.6,29.12,South,173,0.0,0.0,68,0.00,,SKC,0.00,VWS V14.00,2013-05-02 08:37:00,
2013-05-02 04:42:00,57.0,46.6,29.12,South,173,0.0,0.0,68,0.00,,SKC,0.00,VWS V14.00,2013-05-02 08:42:00,
2013-05-02 04:47:00,56.7,46.2,29.12,ESE,104,0.0,0.0,68,0.00,,SKC,0.00,VWS V14.00,2013-05-02 08:47:00,
2013-05-02 04:52:00,56.7,46.2,29.12,ESE,104,0.0,0.0,68,0.00,,SKC,0.00,VWS V14.00,2013-05-02 08:52:00,
2013-05-02 04:57:00,56.7,46.6,29.12,ESE,104,0.0,0.0,69,0.00,,SKC,0.00,VWS V14.00,2013-05-02 08:57:00,
2013-05-02 05:02:00,56.7,46.6,29.12,ESE,104,0.0,0.0,69,0.00,,SKC,0.00,VWS V14.00,2013-05-02 09:02:00,
2013-05-02 05:07:00,56.7,46.6,29.09,ESE,104,0.0,0.0,69,0.00,,SKC,0.00,VWS V14.00,2013-05-02 09:07:00,
2013-05-02 05:12:00,56.5,46.5,29.09,ESE,104,0.0,0.0,69,0.00,,SKC,0.00,VWS V14.00,2013-05-02 09:12:00,
2013-05-02 05:17:00,56.3,46.3,29.09,ESE,104,0.0,0.0,69,0.00,,SKC,0.00,VWS V14.00,2013-05-02 09:17:00,
2013-05-02 05:22:00,56.3,46.7,29.09,ESE,109,0.0,0.0,70,0.00,,SKC,0.00,VWS V14.00,2013-05-02 09:22:00,
2013-05-02 05:27:00,56.3,46.7,29.09,ESE,109,0.0,0.0,70,0.00,,SKC,0.00,VWS V14.00,2013-05-02 09:27:00,
2013-05-02 05:32:00,56.3,46.7,29.09,ESE,109,0.0,0.0,70,0.00,,SKC,0.00,VWS V14.00,2013-05-02 09:32:00,
2013-05-02 05:37:00,56.1,46.5,29.09,ESE,109,0.0,0.0,70,0.00,,SKC,0.00,VWS V14.00,2013-05-02 09:37:00,
2013-05-02 05:42:00,56.1,46.5,29.09,ESE,108,0.0,0.0,70,0.00,,SKC,0.00,VWS V14.00,2013-05-02 09:42:00,
2013-05-02 05:47:00,56.1,46.5,29.09,ESE,109,0.0,0.0,70,0.00,,SKC,0.00,VWS V14.00,2013-05-02 09:47:00,
2013-05-02 05:52:00,55.9,46.3,29.09,ESE,109,0.0,0.0,70,0.00,,SKC,0.00,VWS V14.00,2013-05-02 09:52:00,
2013-05-02 05:57:00,55.9,46.3,29.09,ESE,109,0.0,0.0,70,0.00,,SKC,0.00,VWS V14.00,2013-05-02 09:57:00,
2013-05-02 06:02:00,55.9,46.7,29.09,ESE,109,0.0,0.0,71,0.00,,SKC,0.00,VWS V14.00,2013-05-02 10:02:00,
2013-05-02 06:07:00,55.9,46.3,29.12,ESE,109,0.0,0.0,70,0.00,,SKC,0.00,VWS V14.00,2013-05-02 10:07:00,
2013-05-02 06:12:00,55.8,46.1,29.12,ESE,109,0.0,0.0,70,0.00,,SKC,0.00,VWS V14.00,2013-05-02 10:12:00,
2013-05-02 06:17:00,55.8,46.5,29.12,ESE,109,0.0,0.0,71,0.00,,SKC,0.00,VWS V14.00,2013-05-02 10:17:00,
2013-05-02 06:22:00,55.8,46.5,29.12,ESE,109,0.0,0.0,71,0.00,,SKC,0.00,VWS V14.00,2013-05-02 10:22:00,
2013-05-02 06:27:00,55.4,46.2,29.12,ESE,109,0.0,0.0,71,0.00,,SKC,0.00,VWS V14.00,2013-05-02 10:27:00,
2013-05-02 06:32:00,55.2,46.0,29.12,ESE,109,0.0,0.0,71,0.00,,SKC,0.00,VWS V14.00,2013-05-02 10:32:00,
2013-05-02 06:37:00,55.0,46.2,29.12,ESE,109,0.0,0.0,72,0.00,,SKC,0.00,VWS V14.00,2013-05-02 10:37:00,
2013-05-02 06:42:00,55.0,46.2,29.12,ESE,109,0.0,0.0,72,0.00,,SKC,0.00,VWS V14.00,2013-05-02 10:42:00,
2013-05-02 06:47:00,55.0,46.2,29.12,ESE,109,0.0,0.0,72,0.00,,SKC,0.00,VWS V14.00,2013-05-02 10:47:00,
2013-05-02 06:52:00,55.0,46.2,29.12,ESE,109,0.0,0.0,72,0.00,,SKC,0.00,VWS V14.00,2013-05-02 10:52:00,
2013-05-02 06:57:00,55.0,46.2,29.12,ESE,109,0.0,0.0,72,0.00,,SKC,0.00,VWS V14.00,2013-05-02 10:57:00,
2013-05-02 07:02:00,55.0,46.2,29.12,ESE,109,0.0,0.0,72,0.00,,SKC,0.00,VWS V14.00,2013-05-02 11:02:00,
2013-05-02 07:07:00,55.0,46.5,29.12,ESE,109,0.0,0.0,73,0.00,,SKC,0.00,VWS V14.00,2013-05-02 11:07:00,
2013-05-02 07:12:00,55.0,46.2,29.12,ESE,109,0.0,0.0,72,0.00,,SKC,0.00,VWS V14.00,2013-05-02 11:12:00,
2013-05-02 07:17:00,55.0,46.5,29.12,ESE,109,0.0,0.0,73,0.00,,SKC,0.00,VWS V14.00,2013-05-02 11:17:00,
2013-05-02 07:22:00,55.0,46.5,29.12,ESE,109,0.0,0.0,73,0.00,,SKC,0.00,VWS V14.00,2013-05-02 11:22:00,
2013-05-02 07:27:00,55.2,46.7,29.12,ESE,109,0.0,0.0,73,0.00,,SKC,0.00,VWS V14.00,2013-05-02 11:27:00,
2013-05-02 07:32:00,55.4,46.9,29.12,ESE,109,0.0,0.0,73,0.00,,SKC,0.00,VWS V14.00,2013-05-02 11:32:00,
2013-05-02 07:37:00,55.6,47.1,29.12,ESE,109,0.0,0.0,73,0.00,,SKC,0.00,VWS V14.00,2013-05-02 11:37:00,
2013-05-02 07:42:00,55.8,47.2,29.12,ESE,109,0.0,0.0,73,0.00,,SKC,0.00,VWS V14.00,2013-05-02 11:42:00,
2013-05-02 07:47:00,56.1,48.0,29.12,ESE,109,0.0,0.0,74,0.00,,SKC,0.00,VWS V14.00,2013-05-02 11:47:00,
2013-05-02 07:52:00,56.3,48.1,29.12,ESE,109,0.0,0.0,74,0.00,,SKC,0.00,VWS V14.00,2013-05-02 11:52:00,
2013-05-02 07:57:00,56.7,48.5,29.12,ESE,109,0.0,0.0,74,0.00,,SKC,0.00,VWS V14.00,2013-05-02 11:57:00,
2013-05-02 08:02:00,56.8,48.7,29.12,ESE,109,0.0,0.0,74,0.00,,SKC,0.00,VWS V14.00,2013-05-02 12:02:00,
2013-05-02 08:07:00,57.2,49.0,29.12,ESE,109,0.0,0.0,74,0.00,,SKC,0.00,VWS V14.00,2013-05-02 12:07:00,
2013-05-02 08:12:00,57.6,49.3,29.12,ESE,109,0.0,0.0,74,0.00,,SKC,0.00,VWS V14.00,2013-05-02 12:12:00,
2013-05-02 08:17:00,57.9,49.7,29.12,ESE,109,0.0,0.0,74,0.00,,SKC,0.00,VWS V14.00,2013-05-02 12:17:00,
2013-05-02 08:22:00,58.1,49.9,29.12,ESE,109,0.0,0.0,74,0.00,,SKC,0.00,VWS V14.00,2013-05-02 12:22:00,
2013-05-02 08:27:00,58.5,50.2,29.12,ESE,108,0.0,0.0,74,0.00,,SKC,0.00,VWS V14.00,2013-05-02 12:27:00,
2013-05-02 08:32:00,58.8,50.9,29.12,ESE,108,0.0,0.0,75,0.00,,SKC,0.00,VWS V14.00,2013-05-02 12:32:00,
2013-05-02 08:37:00,59.2,50.9,29.12,ESE,108,0.0,0.0,74,0.00,,SKC,0.00,VWS V14.00,2013-05-02 12:37:00,
2013-05-02 08:42:00,59.5,51.3,29.12,ESE,108,0.0,0.0,74,0.00,,SKC,0.00,VWS V14.00,2013-05-02 12:42:00,
2013-05-02 08:47:00,60.1,52.1,29.12,ESE,104,0.0,0.0,75,0.00,,SKC,0.00,VWS V14.00,2013-05-02 12:47:00,
2013-05-02 08:52:00,60.6,52.3,29.12,ENE,62,0.0,0.0,74,0.00,,SKC,0.00,VWS V14.00,2013-05-02 12:52:00,
2013-05-02 08:57:00,61.0,52.7,29.12,ENE,62,0.0,0.0,74,0.00,,SKC,0.00,VWS V14.00,2013-05-02 12:57:00,
2013-05-02 09:02:00,61.5,52.8,29.12,NE,49,0.0,0.0,73,0.00,,SKC,0.00,VWS V14.00,2013-05-02 13:02:00,
2013-05-02 09:07:00,61.7,53.0,29.12,SSE,156,0.0,3.1,73,0.00,,SKC,0.00,VWS V14.00,2013-05-02 13:07:00,
2013-05-02 09:12:00,61.9,52.8,29.12,NE,40,0.0,0.0,72,0.00,,SKC,0.00,VWS V14.00,2013-05-02 13:12:00,
2013-05-02 09:17:00,62.1,52.9,29.12,NE,37,0.0,0.0,72,0.00,,SKC,0.00,VWS V14.00,2013-05-02 13:17:00,
2013-05-02 09:23:00,62.2,52.7,29.12,NNE,19,0.0,0.0,71,0.00,,SKC,0.00,VWS V14.00,2013-05-02 13:23:00,
2013-05-02 09:28:00,62.6,53.1,29.12,NNE,19,0.0,0.0,71,0.00,,SKC,0.00,VWS V14.00,2013-05-02 13:28:00,
2013-05-02 09:33:00,62.8,52.9,29.12,NNE,19,0.0,0.0,70,0.00,,SKC,0.00,VWS V14.00,2013-05-02 13:33:00,
2013-05-02 09:38:00,63.1,53.6,29.12,NNE,19,0.0,0.0,71,0.00,,SKC,0.00,VWS V14.00,2013-05-02 13:38:00,
2013-05-02 09:43:00,63.5,53.9,29.12,NNE,18,0.0,0.0,71,0.00,,SKC,0.00,VWS V14.00,2013-05-02 13:43:00,
2013-05-02 09:48:00,63.7,53.7,29.15,NE,43,0.0,0.0,70,0.00,,SKC,0.00,VWS V14.00,2013-05-02 13:48:00,
2013-05-02 09:53:00,63.9,53.5,29.15,NE,44,0.0,0.0,69,0.00,,SKC,0.00,VWS V14.00,2013-05-02 13:53:00,
2013-05-02 09:58:00,64.2,53.8,29.15,NE,44,0.0,0.0,69,0.00,,SKC,0.00,VWS V14.00,2013-05-02 13:58:00,
2013-05-02 10:03:00,64.4,53.2,29.15,NE,44,0.0,0.0,67,0.00,,SKC,0.00,VWS V14.00,2013-05-02 14:03:00,
2013-05-02 10:08:00,64.8,54.0,29.15,NE,44,0.0,0.0,68,0.00,,SKC,0.00,VWS V14.00,2013-05-02 14:08:00,
2013-05-02 10:13:00,65.3,54.5,29.15,East,86,0.0,0.0,68,0.00,,SKC,0.00,VWS V14.00,2013-05-02 14:13:00,
2013-05-02 10:18:00,65.5,54.7,29.15,East,86,0.0,0.0,68,0.00,,SKC,0.00,VWS V14.00,2013-05-02 14:18:00,
2013-05-02 10:23:00,65.8,55.0,29.15,East,92,0.0,0.0,68,0.00,,SKC,0.00,VWS V14.00,2013-05-02 14:23:00,
2013-05-02 10:28:00,66.2,55.3,29.15,East,92,0.0,0.0,68,0.00,,SKC,0.00,VWS V14.00,2013-05-02 14:28:00,
2013-05-02 10:33:00,66.2,54.9,29.15,ESE,111,0.0,0.0,67,0.00,,SKC,0.00,VWS V14.00,2013-05-02 14:33:00,
2013-05-02 10:38:00,66.4,54.7,29.15,ENE,61,0.0,0.0,66,0.00,,SKC,0.00,VWS V14.00,2013-05-02 14:38:00,
2013-05-02 10:43:00,66.7,55.0,29.15,ENE,61,0.0,0.0,66,0.00,,SKC,0.00,VWS V14.00,2013-05-02 14:43:00,
2013-05-02 10:48:00,66.9,55.2,29.15,SSW,210,0.0,0.0,66,0.00,,SKC,0.00,VWS V14.00,2013-05-02 14:48:00,
2013-05-02 10:53:00,67.3,55.5,29.15,NE,44,0.0,0.0,66,0.00,,SKC,0.00,VWS V14.00,2013-05-02 14:53:00,
2013-05-02 10:58:00,67.5,55.3,29.15,NE,44,0.0,0.0,65,0.00,,SKC,0.00,VWS V14.00,2013-05-02 14:58:00,
2013-05-02 11:03:00,67.8,55.2,29.15,NE,49,0.0,0.0,64,0.00,,SKC,0.00,VWS V14.00,2013-05-02 15:03:00,
2013-05-02 11:08:00,68.4,55.7,29.15,NNE,20,0.0,2.7,64,0.00,,SKC,0.00,VWS V14.00,2013-05-02 15:08:00,
2013-05-02 11:13:00,69.1,56.4,29.15,NE,51,0.0,0.0,64,0.00,,SKC,0.00,VWS V14.00,2013-05-02 15:13:00,
2013-05-02 11:18:00,69.8,56.7,29.15,North,11,0.0,2.2,63,0.00,,SKC,0.00,VWS V14.00,2013-05-02 15:18:00,
2013-05-02 11:23:00,70.5,56.9,29.15,NE,36,0.0,0.0,62,0.00,,SKC,0.00,VWS V14.00,2013-05-02 15:23:00,
2013-05-02 11:28:00,70.9,56.3,29.15,NE,46,0.0,3.6,60,0.00,,SKC,0.00,VWS V14.00,2013-05-02 15:28:00,
2013-05-02 11:33:00,71.1,56.5,29.15,NNE,20,0.0,3.6,60,0.00,,SKC,0.00,VWS V14.00,2013-05-02 15:33:00,
2013-05-02 11:38:00,71.1,56.5,29.15,NW,322,0.0,3.6,60,0.00,,SKC,0.00,VWS V14.00,2013-05-02 15:38:00,
2013-05-02 11:43:00,70.9,53.9,29.15,NE,42,3.8,5.4,55,0.00,,SKC,0.00,VWS V14.00,2013-05-02 15:43:00,
2013-05-02 11:48:00,70.7,54.2,29.15,ENE,60,0.0,5.4,56,0.00,,SKC,0.00,VWS V14.00,2013-05-02 15:48:00,
2013-05-02 11:53:00,70.7,54.2,29.15,NE,42,0.0,0.0,56,0.00,,SKC,0.00,VWS V14.00,2013-05-02 15:53:00,
2013-05-02 11:58:00,70.9,54.4,29.15,NE,41,0.0,3.1,56,0.00,,SKC,0.00,VWS V14.00,2013-05-02 15:58:00,
2013-05-02 12:03:00,71.4,54.9,29.15,NE,41,0.0,3.6,56,0.00,,SKC,0.00,VWS V14.00,2013-05-02 16:03:00,
2013-05-02 12:08:00,72.0,55.4,29.15,NE,38,0.0,3.6,56,0.00,,SKC,0.00,VWS V14.00,2013-05-02 16:08:00,
2013-05-02 12:13:00,72.1,55.1,29.15,NW,312,0.0,2.7,55,0.00,,SKC,0.00,VWS V14.00,2013-05-02 16:13:00,
2013-05-02 12:18:00,72.5,55.4,29.15,NNW,339,0.0,2.7,55,0.00,,SKC,0.00,VWS V14.00,2013-05-02 16:18:00,
2013-05-02 12:23:00,72.7,54.1,29.15,NNE,21,0.0,2.2,52,0.00,,SKC,0.00,VWS V14.00,2013-05-02 16:23:00,
2013-05-02 12:28:00,72.7,55.1,29.15,West,261,0.0,2.2,54,0.00,,SKC,0.00,VWS V14.00,2013-05-02 16:28:00,
2013-05-02 12:33:00,73.2,55.6,29.15,ENE,57,0.0,0.0,54,0.00,,SKC,0.00,VWS V14.00,2013-05-02 16:33:00,
2013-05-02 12:38:00,74.1,55.4,29.15,East,88,0.0,3.6,52,0.00,,SKC,0.00,VWS V14.00,2013-05-02 16:38:00,
2013-05-02 12:43:00,74.7,54.8,29.15,NE,36,0.0,4.9,50,0.00,,SKC,0.00,VWS V14.00,2013-05-02 16:43:00,
2013-05-02 12:48:00,75.6,54.5,29.15,NW,306,0.0,4.9,48,0.00,,SKC,0.00,VWS V14.00,2013-05-02 16:48:00,
2013-05-02 12:53:00,76.3,55.7,29.15,NNW,345,0.0,2.7,49,0.00,,SKC,0.00,VWS V14.00,2013-05-02 16:53:00,
2013-05-02 12:58:00,76.6,55.5,29.15,NE,51,0.0,2.7,48,0.00,,SKC,0.00,VWS V14.00,2013-05-02 16:58:00,
2013-05-02 13:03:00,76.8,55.7,29.15,West,260,0.0,2.2,48,0.00,,SKC,0.00,VWS V14.00,2013-05-02 17:03:00,
2013-05-02 13:08:00,77.2,55.4,29.15,NNE,18,0.0,2.2,47,0.00,,SKC,0.00,VWS V14.00,2013-05-02 17:08:00,
2013-05-02 13:13:00,77.4,55.6,29.15,NNW,329,0.0,4.0,47,0.00,,SKC,0.00,VWS V14.00,2013-05-02 17:13:00,
2013-05-02 13:18:00,77.4,55.0,29.12,SW,231,0.0,4.0,46,0.00,,SKC,0.00,VWS V14.00,2013-05-02 17:18:00,
2013-05-02 13:23:00,77.4,55.0,29.12,West,268,0.0,0.0,46,0.00,,SKC,0.00,VWS V14.00,2013-05-02 17:23:00,
2013-05-02 13:28:00,77.5,55.2,29.12,SSW,207,0.0,0.0,46,0.00,,SKC,0.00,VWS V14.00,2013-05-02 17:28:00,
2013-05-02 13:33:00,77.9,54.3,29.12,NNE,31,6.4,6.4,44,0.00,,SKC,0.00,VWS V14.00,2013-05-02 17:33:00,
2013-05-02 13:38:00,77.2,53.0,29.12,North,357,0.0,5.8,43,0.00,,SKC,0.00,VWS V14.00,2013-05-02 17:38:00,
2013-05-02 13:43:00,77.4,53.1,29.12,SW,221,0.0,5.8,43,0.00,,SKC,0.00,VWS V14.00,2013-05-02 17:43:00,
2013-05-02 13:48:00,77.4,53.1,29.12,NNE,29,0.0,5.8,43,0.00,,SKC,0.00,VWS V14.00,2013-05-02 17:48:00,
2013-05-02 13:53:00,77.0,52.2,29.12,NE,56,0.0,2.7,42,0.00,,SKC,0.00,VWS V14.00,2013-05-02 17:53:00,
2013-05-02 13:58:00,77.0,52.8,29.12,NE,46,0.0,2.7,43,0.00,,SKC,0.00,VWS V14.00,2013-05-02 17:58:00,
2013-05-02 14:03:00,77.7,53.5,29.12,NE,36,0.0,0.0,43,0.00,,SKC,0.00,VWS V14.00,2013-05-02 18:03:00,
2013-05-02 14:08:00,78.1,53.2,29.12,North,7,0.0,4.9,42,0.00,,SKC,0.00,VWS V14.00,2013-05-02 18:08:00,
2013-05-02 14:13:00,78.1,52.5,29.12,NNE,32,0.0,3.1,41,0.00,,SKC,0.00,VWS V14.00,2013-05-02 18:13:00,
2013-05-02 14:18:00,78.6,53.0,29.12,NNE,19,0.0,3.1,41,0.00,,SKC,0.00,VWS V14.00,2013-05-02 18:18:00,
2013-05-02 14:23:00,79.2,53.5,29.12,NE,41,0.0,0.0,41,0.00,,SKC,0.00,VWS V14.00,2013-05-02 18:23:00,
2013-05-02 14:28:00,78.8,52.5,29.12,NE,38,0.0,0.0,40,0.00,,SKC,0.00,VWS V14.00,2013-05-02 18:28:00,
2013-05-02 14:33:00,78.6,53.0,29.12,WSW,254,0.0,6.3,41,0.00,,SKC,0.00,VWS V14.00,2013-05-02 18:33:00,
2013-05-02 14:38:00,79.0,52.6,29.12,NNE,16,0.0,6.3,40,0.00,,SKC,0.00,VWS V14.00,2013-05-02 18:38:00,
2013-05-02 14:43:00,79.5,53.8,29.12,South,189,4.8,4.8,41,0.00,,SKC,0.00,VWS V14.00,2013-05-02 18:43:00,
2013-05-02 14:49:00,80.4,54.6,29.09,SSW,194,4.8,4.9,41,0.00,,SKC,0.00,VWS V14.00,2013-05-02 18:49:00,
2013-05-02 14:54:00,81.0,54.4,29.09,SW,224,0.0,3.6,40,0.00,,SKC,0.00,VWS V14.00,2013-05-02 18:54:00,
2013-05-02 14:59:00,81.5,55.5,29.09,South,189,0.0,3.6,41,0.00,,SKC,0.00,VWS V14.00,2013-05-02 18:59:00,
2013-05-02 15:04:00,82.0,56.0,29.09,South,185,0.0,3.6,41,0.00,,SKC,0.00,VWS V14.00,2013-05-02 19:04:00,
2013-05-02 15:09:00,82.4,55.7,29.09,SW,227,0.0,3.6,40,0.00,,SKC,0.00,VWS V14.00,2013-05-02 19:09:00,
2013-05-02 15:14:00,82.8,55.3,29.09,SSW,209,0.0,5.8,39,0.00,,SKC,0.00,VWS V14.00,2013-05-02 19:14:00,
2013-05-02 15:19:00,82.2,52.6,29.09,NE,52,2.7,5.8,36,0.00,,SKC,0.00,VWS V14.00,2013-05-02 19:19:00,
2013-05-02 15:24:00,81.5,52.0,29.09,NW,318,0.0,2.2,36,0.00,,SKC,0.00,VWS V14.00,2013-05-02 19:24:00,
2013-05-02 15:29:00,80.8,50.6,29.09,SW,234,0.0,4.5,35,0.00,,SKC,0.00,VWS V14.00,2013-05-02 19:29:00,
2013-05-02 15:34:00,80.1,51.5,29.09,SSE,168,0.0,0.0,37,0.00,,SKC,0.00,VWS V14.00,2013-05-02 19:34:00,
2013-05-02 15:39:00,79.2,50.7,29.09,South,186,0.0,0.0,37,0.00,,SKC,0.00,VWS V14.00,2013-05-02 19:39:00,
2013-05-02 15:44:00,78.8,50.4,29.09,WSW,237,0.0,6.3,37,0.00,,SKC,0.00,VWS V14.00,2013-05-02 19:44:00,
2013-05-02 15:49:00,78.4,50.8,29.09,SSW,210,3.2,6.3,38,0.00,,SKC,0.00,VWS V14.00,2013-05-02 19:49:00,
2013-05-02 15:54:00,78.1,50.4,29.09,WSW,242,0.0,4.0,38,0.00,,SKC,0.00,VWS V14.00,2013-05-02 19:54:00,
2013-05-02 15:59:00,77.7,50.1,29.09,South,170,0.0,4.0,38,0.00,,SKC,0.00,VWS V14.00,2013-05-02 19:59:00,
2013-05-02 16:04:00,77.5,50.7,29.09,South,170,0.0,4.0,39,0.00,,SKC,0.00,VWS V14.00,2013-05-02 20:04:00,
2013-05-02 16:09:00,77.5,50.0,29.09,South,170,0.0,4.0,38,0.00,,SKC,0.00,VWS V14.00,2013-05-02 20:09:00,
2013-05-02 16:14:00,77.4,50.5,29.09,SSE,160,0.0,4.9,39,0.00,,SKC,0.00,VWS V14.00,2013-05-02 20:14:00,
2013-05-02 16:19:00,77.0,50.2,29.06,ESE,103,0.0,4.9,39,0.00,,SKC,0.00,VWS V14.00,2013-05-02 20:19:00,
2013-05-02 16:24:00,77.0,50.2,29.06,ESE,119,0.0,0.0,39,0.00,,SKC,0.00,VWS V14.00,2013-05-02 20:24:00,
2013-05-02 16:29:00,77.2,50.3,29.06,East,81,0.0,0.0,39,0.00,,SKC,0.00,VWS V14.00,2013-05-02 20:29:00,
2013-05-02 16:34:00,77.5,50.7,29.06,East,85,0.0,0.0,39,0.00,,SKC,0.00,VWS V14.00,2013-05-02 20:34:00,
2013-05-02 16:39:00,78.3,52.0,29.06,SW,215,0.0,0.0,40,0.00,,SKC,0.00,VWS V14.00,2013-05-02 20:39:00,
2013-05-02 16:44:00,78.8,51.8,29.06,SW,223,0.0,0.0,39,0.00,,SKC,0.00,VWS V14.00,2013-05-02 20:44:00,
2013-05-02 16:49:00,79.3,50.8,29.06,NNE,13,0.0,3.1,37,0.00,,SKC,0.00,VWS V14.00,2013-05-02 20:49:00,
2013-05-02 16:54:00,79.5,51.0,29.06,WSW,244,0.0,0.0,37,0.00,,SKC,0.00,VWS V14.00,2013-05-02 20:54:00,
2013-05-02 16:59:00,79.3,50.1,29.06,NNE,15,0.0,4.0,36,0.00,,SKC,0.00,VWS V14.00,2013-05-02 20:59:00,
2013-05-02 17:04:00,79.0,49.8,29.06,East,101,0.0,3.6,36,0.00,,SKC,0.00,VWS V14.00,2013-05-02 21:04:00,
2013-05-02 17:09:00,79.0,49.0,29.06,WNW,284,0.0,4.0,35,0.00,,SKC,0.00,VWS V14.00,2013-05-02 21:09:00,
2013-05-02 17:14:00,78.6,48.7,29.06,NNE,28,0.0,3.1,35,0.00,,SKC,0.00,VWS V14.00,2013-05-02 21:14:00,
2013-05-02 17:19:00,78.3,48.4,29.06,NNE,28,0.0,3.1,35,0.00,,SKC,0.00,VWS V14.00,2013-05-02 21:19:00,
2013-05-02 17:24:00,78.4,48.5,29.06,NE,35,0.0,4.0,35,0.00,,SKC,0.00,VWS V14.00,2013-05-02 21:24:00,
2013-05-02 17:29:00,78.4,48.5,29.06,NNE,22,4.3,4.5,35,0.00,,SKC,0.00,VWS V14.00,2013-05-02 21:29:00,
2013-05-02 17:34:00,77.9,48.8,29.06,NNW,327,0.0,2.2,36,0.00,,SKC,0.00,VWS V14.00,2013-05-02 21:34:00,
2013-05-02 17:39:00,77.4,49.1,29.06,NNW,345,0.0,3.1,37,0.00,,SKC,0.00,VWS V14.00,2013-05-02 21:39:00,
2013-05-02 17:44:00,76.6,49.2,29.06,NE,47,0.0,3.6,38,0.00,,SKC,0.00,VWS V14.00,2013-05-02 21:44:00,
2013-05-02 17:49:00,75.7,49.0,29.06,NE,38,0.0,3.6,39,0.00,,SKC,0.00,VWS V14.00,2013-05-02 21:49:00,
2013-05-02 17:54:00,75.2,49.9,29.06,NE,38,0.0,0.0,41,0.00,,SKC,0.00,VWS V14.00,2013-05-02 21:54:00,
2013-05-02 17:59:00,75.0,50.4,29.06,NE,38,0.0,0.0,42,0.00,,SKC,0.00,VWS V14.00,2013-05-02 21:59:00,
2013-05-02 18:04:00,75.0,51.0,29.06,NE,38,0.0,0.0,43,0.00,,SKC,0.00,VWS V14.00,2013-05-02 22:04:00,
2013-05-02 18:09:00,75.0,51.0,29.06,NE,38,0.0,0.0,43,0.00,,SKC,0.00,VWS V14.00,2013-05-02 22:09:00,
2013-05-02 18:14:00,74.7,50.7,29.06,NE,38,0.0,0.0,43,0.00,,SKC,0.00,VWS V14.00,2013-05-02 22:14:00,
2013-05-02 18:19:00,74.5,51.2,29.06,NE,38,0.0,0.0,44,0.00,,SKC,0.00,VWS V14.00,2013-05-02 22:19:00,
2013-05-02 18:24:00,74.1,50.2,29.06,NE,41,0.0,0.0,43,0.00,,SKC,0.00,VWS V14.00,2013-05-02 22:24:00,
2013-05-02 18:29:00,74.3,50.4,29.06,NE,47,0.0,0.0,43,0.00,,SKC,0.00,VWS V14.00,2013-05-02 22:29:00,
2013-05-02 18:34:00,74.5,50.5,29.06,NNE,31,3.2,5.8,43,0.00,,SKC,0.00,VWS V14.00,2013-05-02 22:34:00,
2013-05-02 18:39:00,74.3,50.4,29.06,NNE,28,0.0,5.8,43,0.00,,SKC,0.00,VWS V14.00,2013-05-02 22:39:00,
2013-05-02 18:44:00,74.1,50.2,29.06,North,9,0.0,5.8,43,0.00,,SKC,0.00,VWS V14.00,2013-05-02 22:44:00,
2013-05-02 18:49:00,74.1,50.2,29.06,NNE,32,0.0,5.8,43,0.00,,SKC,0.00,VWS V14.00,2013-05-02 22:49:00,
2013-05-02 18:54:00,74.1,50.2,29.06,NNE,19,0.0,3.6,43,0.00,,SKC,0.00,VWS V14.00,2013-05-02 22:54:00,
2013-05-02 18:59:00,73.8,49.9,29.06,NNE,31,2.7,5.4,43,0.00,,SKC,0.00,VWS V14.00,2013-05-02 22:59:00,
2013-05-02 19:04:00,73.6,49.7,29.06,NNE,25,0.0,3.1,43,0.00,,SKC,0.00,VWS V14.00,2013-05-02 23:04:00,
2013-05-02 19:09:00,73.4,49.6,29.06,NNE,29,0.0,3.1,43,0.00,,SKC,0.00,VWS V14.00,2013-05-02 23:09:00,
2013-05-02 19:14:00,73.2,50.0,29.06,NE,35,0.0,0.0,44,0.00,,SKC,0.00,VWS V14.00,2013-05-02 23:14:00,
2013-05-02 19:19:00,73.0,49.9,29.03,NNE,31,0.0,0.0,44,0.00,,SKC,0.00,VWS V14.00,2013-05-02 23:19:00,
2013-05-02 19:24:00,72.9,49.7,29.03,NNE,31,0.0,0.0,44,0.00,,SKC,0.00,VWS V14.00,2013-05-02 23:24:00,
2013-05-02 19:29:00,72.7,50.1,29.03,NNE,31,0.0,0.0,45,0.00,,SKC,0.00,VWS V14.00,2013-05-02 23:29:00,
2013-05-02 19:34:00,72.7,50.1,29.03,NNE,31,0.0,0.0,45,0.00,,SKC,0.00,VWS V14.00,2013-05-02 23:34:00,
2013-05-02 19:39:00,72.3,49.8,29.03,NNE,31,0.0,0.0,45,0.00,,SKC,0.00,VWS V14.00,2013-05-02 23:39:00,
2013-05-02 19:44:00,72.0,49.5,29.03,NNE,31,0.0,0.0,45,0.00,,SKC,0.00,VWS V14.00,2013-05-02 23:44:00,
2013-05-02 19:49:00,71.8,49.9,29.03,NNE,27,0.0,0.0,46,0.00,,SKC,0.00,VWS V14.00,2013-05-02 23:49:00,
2013-05-02 19:54:00,71.8,49.9,29.03,NNE,27,0.0,0.0,46,0.00,,SKC,0.00,VWS V14.00,2013-05-02 23:54:00,
2013-05-02 19:59:00,71.4,50.2,29.03,NNE,27,0.0,0.0,47,0.00,,SKC,0.00,VWS V14.00,2013-05-02 23:59:00,
2013-05-02 20:04:00,71.2,50.0,29.06,NNE,27,0.0,0.0,47,0.00,,SKC,0.00,VWS V14.00,2013-05-03 00:04:00,
2013-05-02 20:09:00,70.9,49.7,29.06,NNE,27,0.0,0.0,47,0.00,,SKC,0.00,VWS V14.00,2013-05-03 00:09:00,
2013-05-02 20:14:00,70.7,49.5,29.06,NNE,27,0.0,0.0,47,0.00,,SKC,0.00,VWS V14.00,2013-05-03 00:14:00,
2013-05-02 20:19:00,70.5,49.9,29.06,NNE,27,0.0,0.0,48,0.00,,SKC,0.00,VWS V14.00,2013-05-03 00:19:00,
2013-05-02 20:25:00,70.2,49.6,29.06,NNE,27,0.0,0.0,48,0.00,,SKC,0.00,VWS V14.00,2013-05-03 00:25:00,
2013-05-02 20:30:00,70.0,49.4,29.06,NNE,27,0.0,0.0,48,0.00,,SKC,0.00,VWS V14.00,2013-05-03 00:30:00,
2013-05-02 20:35:00,69.6,49.6,29.06,NNE,27,0.0,0.0,49,0.00,,SKC,0.00,VWS V14.00,2013-05-03 00:35:00,
2013-05-02 20:40:00,69.1,49.1,29.06,NNE,27,0.0,0.0,49,0.00,,SKC,0.00,VWS V14.00,2013-05-03 00:40:00,
2013-05-02 20:45:00,68.7,49.3,29.06,NNE,27,0.0,0.0,50,0.00,,SKC,0.00,VWS V14.00,2013-05-03 00:45:00,
2013-05-02 20:50:00,68.5,49.2,29.06,NNE,20,0.0,0.0,50,0.00,,SKC,0.00,VWS V14.00,2013-05-03 00:50:00,
2013-05-02 20:55:00,68.4,49.5,29.06,NNE,20,0.0,0.0,51,0.00,,SKC,0.00,VWS V14.00,2013-05-03 00:55:00,
2013-05-02 21:00:00,68.4,49.5,29.06,NNE,20,0.0,0.0,51,0.00,,SKC,0.00,VWS V14.00,2013-05-03 01:00:00,
2013-05-02 21:05:00,68.2,49.4,29.06,NNE,31,0.0,0.0,51,0.00,,SKC,0.00,VWS V14.00,2013-05-03 01:05:00,
2013-05-02 21:10:00,68.0,49.2,29.06,NNE,31,0.0,0.0,51,0.00,,SKC,0.00,VWS V14.00,2013-05-03 01:10:00,
2013-05-02 21:15:00,67.8,49.6,29.06,NNE,31,0.0,0.0,52,0.00,,SKC,0.00,VWS V14.00,2013-05-03 01:15:00,
2013-05-02 21:20:00,67.6,49.4,29.06,NE,46,0.0,0.0,52,0.00,,SKC,0.00,VWS V14.00,2013-05-03 01:20:00,
2013-05-02 21:25:00,67.5,48.7,29.06,South,178,0.0,0.0,51,0.00,,SKC,0.00,VWS V14.00,2013-05-03 01:25:00,
2013-05-02 21:30:00,67.3,48.5,29.06,SSE,159,0.0,0.0,51,0.00,,SKC,0.00,VWS V14.00,2013-05-03 01:30:00,
2013-05-02 21:35:00,67.1,48.4,29.06,SSE,166,3.2,4.0,51,0.00,,SKC,0.00,VWS V14.00,2013-05-03 01:35:00,
2013-05-02 21:40:00,67.1,48.4,29.06,SW,225,0.0,5.8,51,0.00,,SKC,0.00,VWS V14.00,2013-05-03 01:40:00,
2013-05-02 21:45:00,66.9,47.7,29.06,SSW,194,2.7,4.0,50,0.00,,SKC,0.00,VWS V14.00,2013-05-03 01:45:00,
2013-05-02 21:50:00,66.9,47.7,29.06,SSW,208,3.8,4.0,50,0.00,,SKC,0.00,VWS V14.00,2013-05-03 01:50:00,
2013-05-02 21:55:00,66.9,47.7,29.06,SE,145,4.3,5.8,50,0.00,,SKC,0.00,VWS V14.00,2013-05-03 01:55:00,
2013-05-02 22:00:00,66.9,47.2,29.06,South,176,4.3,5.8,49,0.00,,SKC,0.00,VWS V14.00,2013-05-03 02:00:00,
2013-05-02 22:05:00,66.7,47.0,29.06,SSW,203,0.0,5.4,49,0.00,,SKC,0.00,VWS V14.00,2013-05-03 02:05:00,
2013-05-02 22:10:00,66.7,47.0,29.06,SW,223,0.0,5.4,49,0.00,,SKC,0.00,VWS V14.00,2013-05-03 02:10:00,
2013-05-02 22:15:00,66.6,46.8,29.06,WSW,250,0.0,0.0,49,0.00,,SKC,0.00,VWS V14.00,2013-05-03 02:15:00,
2013-05-02 22:20:00,66.6,46.8,29.06,WSW,245,0.0,0.0,49,0.00,,SKC,0.00,VWS V14.00,2013-05-03 02:20:00,
2013-05-02 22:25:00,66.4,46.7,29.06,WSW,245,0.0,0.0,49,0.00,,SKC,0.00,VWS V14.00,2013-05-03 02:25:00,
2013-05-02 22:30:00,66.4,46.1,29.06,WSW,245,0.0,0.0,48,0.00,,SKC,0.00,VWS V14.00,2013-05-03 02:30:00,
2013-05-02 22:35:00,66.0,46.3,29.09,WSW,245,0.0,0.0,49,0.00,,SKC,0.00,VWS V14.00,2013-05-03 02:35:00,
2013-05-02 22:40:00,65.8,46.7,29.09,WSW,245,0.0,0.0,50,0.00,,SKC,0.00,VWS V14.00,2013-05-03 02:40:00,
2013-05-02 22:45:00,65.5,46.4,29.09,WSW,245,0.0,0.0,50,0.00,,SKC,0.00,VWS V14.00,2013-05-03 02:45:00,
2013-05-02 22:50:00,65.3,46.2,29.06,WSW,245,0.0,0.0,50,0.00,,SKC,0.00,VWS V14.00,2013-05-03 02:50:00,
2013-05-02 22:55:00,65.1,46.0,29.06,WSW,245,0.0,0.0,50,0.00,,SKC,0.00,VWS V14.00,2013-05-03 02:55:00,
2013-05-02 23:00:00,64.9,45.9,29.06,WSW,245,0.0,0.0,50,0.00,,SKC,0.00,VWS V14.00,2013-05-03 03:00:00,
2013-05-02 23:05:00,64.9,45.9,29.06,WSW,245,0.0,0.0,50,0.00,,SKC,0.00,VWS V14.00,2013-05-03 03:05:00,
2013-05-02 23:10:00,64.9,46.4,29.06,WSW,245,0.0,0.0,51,0.00,,SKC,0.00,VWS V14.00,2013-05-03 03:10:00,
2013-05-02 23:15:00,64.6,46.1,29.06,WSW,245,0.0,0.0,51,0.00,,SKC,0.00,VWS V14.00,2013-05-03 03:15:00,
2013-05-02 23:20:00,64.4,45.9,29.09,WSW,245,0.0,0.0,51,0.00,,SKC,0.00,VWS V14.00,2013-05-03 03:20:00,
2013-05-02 23:25:00,64.2,46.2,29.09,WSW,245,0.0,0.0,52,0.00,,SKC,0.00,VWS V14.00,2013-05-03 03:25:00,
2013-05-02 23:30:00,64.2,46.2,29.09,WSW,245,0.0,0.0,52,0.00,,SKC,0.00,VWS V14.00,2013-05-03 03:30:00,
2013-05-02 23:35:00,64.0,46.6,29.09,WSW,245,0.0,0.0,53,0.00,,SKC,0.00,VWS V14.00,2013-05-03 03:35:00,
2013-05-02 23:40:00,64.0,46.6,29.09,WSW,245,0.0,0.0,53,0.00,,SKC,0.00,VWS V14.00,2013-05-03 03:40:00,
2013-05-02 23:45:00,64.0,46.6,29.09,WSW,245,0.0,0.0,53,0.00,,SKC,0.00,VWS V14.00,2013-05-03 03:45:00,
2013-05-02 23:50:00,63.9,46.4,29.09,WSW,245,0.0,0.0,53,0.00,,SKC,0.00,VWS V14.00,2013-05-03 03:50:00,
2013-05-02 23:55:00,63.7,46.7,29.09,WSW,245,0.0,0.0,54,0.00,,SKC,0.00,VWS V14.00,2013-05-03 03:55:00,